Location: Poughquag
(41.6090°N, 73.6820°W)
Time: 16:59:23
(UTC-05:00)

MOZHAYETS 4 - Visible Passes

Search period start: 28 November 2023 00:00
Search period end: 08 December 2023 00:00
Orbit: 656 x 672 km, 98.3° (Epoch: 28 November)

Date Brightness Start Highest point End Pass type
(mag) Time Alt. Az. Time Alt. Az. Time Alt. Az.
30 Nov 10.2 17:01:52 10° NNW 17:05:14 20° WNW 17:08:35 10° WSW visible
01 Dec 10.7 17:34:55 10° NW 17:35:44 10° WNW 17:36:32 10° WNW visible
03 Dec 10.0 16:57:23 10° NNW 17:00:56 22° WNW 17:04:28 10° WSW visible
04 Dec 10.6 17:29:50 10° NW 17:31:25 12° WNW 17:33:00 10° W visible
06 Dec 9.9 16:52:50 10° NNW 16:56:34 25° WNW 17:00:17 10° WSW visible
07 Dec 10.5 17:25:00 10° NW 17:27:04 13° WNW 17:29:07 10° W visible
